When you browse on this site, cookies collect data to enhance your experience and personalize the content and advertising you see.
Visit our Privacy Policy to learn more. By continuing to use the site, you agree to this use of cookies and data.

Hourly Weather Yulara

Today, 3 July, Friday

Time Temperature Precipitation Wind Pressure Humidity
00:00 +9°C° 0 mm 5 mps 723 mmHg 60%
01:00 +9°C° 0 mm 5 mps 723 mmHg 64%
02:00 +8°C° 0 mm 5 mps 723 mmHg 67%
03:00 +8°C° 0 mm 5 mps 723 mmHg 72%
04:00 +7°C° 0 mm 5 mps 724 mmHg 73%
05:00 +7°C° 0 mm 5 mps 724 mmHg 74%
06:00 +7°C° 0 mm 5 mps 725 mmHg 75%
07:00 +8°C° 0 mm 5 mps 725 mmHg 67%
08:00 +10°C° 0 mm 6 mps 726 mmHg 59%
09:00 +11°C° 0 mm 7 mps 727 mmHg 51%
10:00 +14°C° 0 mm 7 mps 726 mmHg 46%
11:00 +17°C° 0 mm 7 mps 726 mmHg 41%
12:00 +20°C° 0 mm 7 mps 726 mmHg 35%
13:00 +20°C° 0 mm 7 mps 725 mmHg 33%
14:00 +21°C° 0 mm 7 mps 725 mmHg 32%
15:00 +21°C° 0 mm 7 mps 725 mmHg 30%
16:00 +20°C° 0 mm 6 mps 725 mmHg 33%
17:00 +17°C° 0 mm 5 mps 725 mmHg 36%
18:00 +15°C° 0 mm 5 mps 725 mmHg 40%
19:00 +14°C° 0 mm 5 mps 725 mmHg 42%
20:00 +13°C° 0 mm 5 mps 726 mmHg 43%
21:00 +12°C° 0 mm 5 mps 726 mmHg 45%
22:00 +10°C° 0 mm 5 mps 726 mmHg 49%
23:00 +9°C° 0 mm 5 mps 726 mmHg 53%

Tomorrow, 4 July, Saturday

Time Temperature Precipitation Wind Pressure Humidity
00:00 +8°C° 0 mm 5 mps 726 mmHg 57%
01:00 +8°C° 0 mm 5 mps 726 mmHg 59%
02:00 +8°C° 0 mm 4 mps 726 mmHg 61%
03:00 +7°C° 0 mm 4 mps 726 mmHg 63%
04:00 +7°C° 0 mm 4 mps 726 mmHg 66%
05:00 +6°C° 0 mm 4 mps 726 mmHg 70%
06:00 +6°C° 0 mm 4 mps 726 mmHg 73%
07:00 +7°C° 0 mm 5 mps 727 mmHg 67%
08:00 +9°C° 0 mm 6 mps 727 mmHg 62%
09:00 +10°C° 0 mm 7 mps 728 mmHg 56%
10:00 +12°C° 0 mm 7 mps 727 mmHg 48%
11:00 +15°C° 0 mm 7 mps 727 mmHg 41%
12:00 +17°C° 0 mm 7 mps 726 mmHg 33%
13:00 +18°C° 0 mm 7 mps 726 mmHg 30%
14:00 +20°C° 0 mm 7 mps 725 mmHg 27%
15:00 +20°C° 0 mm 7 mps 725 mmHg 23%
16:00 +17°C° 0 mm 6 mps 725 mmHg 27%
17:00 +16°C° 0 mm 5 mps 725 mmHg 31%
18:00 +14°C° 0 mm 4 mps 725 mmHg 35%
19:00 +13°C° 0 mm 4 mps 725 mmHg 39%
20:00 +12°C° 0 mm 4 mps 726 mmHg 42%
21:00 +11°C° 0 mm 4 mps 726 mmHg 46%
22:00 +10°C° 0 mm 4 mps 726 mmHg 50%
23:00 +10°C° 0 mm 4 mps 726 mmHg 55%

Day after tomorrow, 5 July, Sunday

Time Temperature Precipitation Wind Pressure Humidity
00:00 +8°C° 0 mm 4 mps 726 mmHg 59%
01:00 +7°C° 0 mm 4 mps 725 mmHg 64%
02:00 +6°C° 0 mm 4 mps 725 mmHg 70%
03:00 +7°C° 0 mm 3 mps 725 mmHg 75%
04:00 +5°C° 0 mm 4 mps 725 mmHg 76%
05:00 +5°C° 0 mm 4 mps 725 mmHg 77%
06:00 +5°C° 0 mm 5 mps 726 mmHg 79%
07:00 +5°C° 0 mm 6 mps 726 mmHg 72%
08:00 +7°C° 0 mm 6 mps 726 mmHg 65%
09:00 +9°C° 0 mm 7 mps 726 mmHg 57%
10:00 +11°C° 0 mm 7 mps 726 mmHg 50%
11:00 +14°C° 0 mm 7 mps 725 mmHg 42%
12:00 +16°C° 0 mm 7 mps 725 mmHg 34%
13:00 +17°C° 0 mm 7 mps 724 mmHg 31%
14:00 +18°C° 0 mm 7 mps 723 mmHg 28%
15:00 +20°C° 0 mm 7 mps 723 mmHg 25%
16:00 +17°C° 0 mm 6 mps 723 mmHg 30%
17:00 +15°C° 0 mm 5 mps 723 mmHg 34%
18:00 +13°C° 0 mm 4 mps 723 mmHg 38%
19:00 +12°C° 0 mm 4 mps 724 mmHg 42%
20:00 +11°C° 0 mm 4 mps 724 mmHg 45%
21:00 +8°C° 0 mm 4 mps 725 mmHg 49%
22:00 +7°C° 0 mm 4 mps 725 mmHg 51%
23:00 +7°C° 0 mm 4 mps 725 mmHg 53%

6 July, Monday

Time Temperature Precipitation Wind Pressure Humidity
00:00 +6°C° 0 mm 5 mps 725 mmHg 56%
01:00 +5°C° 0 mm 4 mps 725 mmHg 58%
02:00 +4°C° 0 mm 4 mps 724 mmHg 61%
03:00 +4°C° 0 mm 4 mps 724 mmHg 64%
04:00 +3°C° 0 mm 4 mps 724 mmHg 67%
05:00 +3°C° 0 mm 4 mps 724 mmHg 70%
06:00 +3°C° 0 mm 4 mps 725 mmHg 74%
07:00 +3°C° 0 mm 5 mps 725 mmHg 68%
08:00 +5°C° 0 mm 6 mps 725 mmHg 62%
09:00 +8°C° 0 mm 6 mps 725 mmHg 56%
10:00 +10°C° 0 mm 7 mps 725 mmHg 48%
11:00 +12°C° 0 mm 7 mps 725 mmHg 40%
12:00 +15°C° 0 mm 7 mps 724 mmHg 32%
13:00 +16°C° 0 mm 6 mps 724 mmHg 29%
14:00 +17°C° 0 mm 6 mps 723 mmHg 26%
15:00 +19°C° 0 mm 5 mps 723 mmHg 24%
16:00 +17°C° 0 mm 5 mps 723 mmHg 28%
17:00 +15°C° 0 mm 4 mps 723 mmHg 31%
18:00 +13°C° 0 mm 4 mps 723 mmHg 35%
19:00 +11°C° 0 mm 4 mps 723 mmHg 39%
20:00 +10°C° 0 mm 4 mps 724 mmHg 43%
21:00 +8°C° 0 mm 4 mps 724 mmHg 47%
22:00 +7°C° 0 mm 4 mps 724 mmHg 50%
23:00 +7°C° 0 mm 4 mps 724 mmHg 54%

7 July, Tuesday

Time Temperature Precipitation Wind Pressure Humidity
00:00 +6°C° 0 mm 4 mps 724 mmHg 58%
01:00 +5°C° 0 mm 4 mps 724 mmHg 62%
02:00 +4°C° 0 mm 4 mps 724 mmHg 66%
03:00 +4°C° 0 mm 4 mps 723 mmHg 70%
04:00 +3°C° 0 mm 3 mps 724 mmHg 73%
05:00 +3°C° 0 mm 3 mps 724 mmHg 76%
06:00 +3°C° 0 mm 3 mps 724 mmHg 79%
07:00 +4°C° 0 mm 4 mps 724 mmHg 72%
08:00 +6°C° 0 mm 4 mps 725 mmHg 64%
09:00 +8°C° 0 mm 4 mps 725 mmHg 57%
10:00 +11°C° 0 mm 4 mps 725 mmHg 50%
11:00 +13°C° 0 mm 4 mps 724 mmHg 42%
12:00 +15°C° 0 mm 4 mps 724 mmHg 35%
13:00 +17°C° 0 mm 3 mps 723 mmHg 32%
14:00 +18°C° 0 mm 3 mps 723 mmHg 28%
15:00 +19°C° 0 mm 2 mps 722 mmHg 25%
16:00 +17°C° 0 mm 2 mps 722 mmHg 32%
17:00 +15°C° 0 mm 2 mps 722 mmHg 38%
18:00 +12°C° 0 mm 2 mps 722 mmHg 44%
19:00 +10°C° 0 mm 2 mps 722 mmHg 47%
20:00 +10°C° 0 mm 2 mps 722 mmHg 49%
21:00 +9°C° 0 mm 2 mps 723 mmHg 51%
22:00 +8°C° 0 mm 2 mps 723 mmHg 54%
23:00 +7°C° 0 mm 2 mps 722 mmHg 57%

8 July, Wednesday

Time Temperature Precipitation Wind Pressure Humidity
00:00 +7°C° 0 mm 2 mps 722 mmHg 60%
01:00 +6°C° 0 mm 2 mps 722 mmHg 60%
02:00 +5°C° 0 mm 3 mps 722 mmHg 61%
03:00 +4°C° 0 mm 3 mps 722 mmHg 62%
04:00 +4°C° 0 mm 3 mps 722 mmHg 65%
05:00 +4°C° 0 mm 2 mps 722 mmHg 67%
06:00 +4°C° 0 mm 2 mps 722 mmHg 70%
07:00 +6°C° 0 mm 2 mps 723 mmHg 62%
08:00 +8°C° 0 mm 2 mps 723 mmHg 53%
09:00 +10°C° 0 mm 2 mps 723 mmHg 45%
10:00 +13°C° 0 mm 2 mps 723 mmHg 39%
11:00 +16°C° 0 mm 2 mps 723 mmHg 33%
12:00 +18°C° 0 mm 2 mps 723 mmHg 28%
13:00 +19°C° 0 mm 3 mps 722 mmHg 26%
14:00 +20°C° 0 mm 4 mps 722 mmHg 24%
15:00 +22°C° 0 mm 4 mps 721 mmHg 22%
16:00 +19°C° 0 mm 4 mps 721 mmHg 26%
17:00 +17°C° 0 mm 3 mps 721 mmHg 30%
18:00 +14°C° 0 mm 3 mps 721 mmHg 34%
19:00 +13°C° 0 mm 3 mps 721 mmHg 36%
20:00 +13°C° 0 mm 2 mps 722 mmHg 38%
21:00 +12°C° 0 mm 2 mps 722 mmHg 40%
22:00 +12°C° 0 mm 2 mps 722 mmHg 39%
23:00 +10°C° 0 mm 2 mps 722 mmHg 38%
Show more